Simultaneous Nadir Overpasses (SNOs) Predictions

Prediction of SNOs between GOES-17 and LANDSAT-8 Satellite Orbit:

Table of predicted SNOs for the next 14.0 days since TLE Epoch: 6/11/2022
Index Date Time (GOES-17) GOES-17 Lat,Lon LANDSAT-8 Lat,Lon Distance(km) Time Diff (sec)
1 06/11/2022 07:29:09 -0.04,-137.19 -0.51,-139.46 257.01 80
2 06/13/2022 07:19:39 -0.04,-137.19 0.12,-136.50 78.91 80
3 06/15/2022 07:07:29 -0.04,-137.18 0.75,-133.55 413.73 80
4 06/15/2022 19:26:05 0.04,-137.18 0.33,-138.71 172.92 80
5 06/17/2022 19:16:34 0.03,-137.17 -0.25,-135.74 161.27 80
6 06/18/2022 07:35:19 -0.03,-137.16 -0.83,-140.94 429.81 80
7 06/19/2022 19:04:24 0.03,-137.15 -0.90,-132.79 495.34 80
8 06/20/2022 07:23:09 -0.03,-137.14 -0.18,-137.99 95.78 80
9 06/22/2022 07:13:38 -0.02,-137.12 0.42,-135.03 238.33 80
10 06/22/2022 19:32:13 0.02,-137.12 0.66,-140.19 348.59 80
11 06/24/2022 19:20:03 0.02,-137.09 0.06,-137.23 15.07 80
